Temp
50 50 50 51 51 51 51 51 51 51 52 52 53 53 54 54 54 51 47 51 44 39 43 49 49 42 41 40 35 40 40 39 39 37 36 37 38 38 35 40 43 44 43 47 47 45 46 72 71 58 63 63 70 68
50 50 50 50 50 50 50 50 51 51 51 52 52 53 54 54 54 53 45 51 51 44 44 51 51 51 50 48 42 43 37 40 41 38 38 39 39 38 37 32 44 40 42 41 43 51 60 66 68 70 70 69 72 71
50 51 50 50 50 50 50 51 51 51 51 51 52 53 53 54 54 52 48 49 48 43 47 48 48 55 56 53 53 40 43 46 45 45 42 40 36 42 34 36 37 43 47 42 45 54 54 61 60 60 68 72 73 75
50 50 50 50 50 50 50 51 51 51 51 51 52 52 53 54 53 53 48 50 47 44 39 44 61 55 61 57 54 52 48 49 47 46 41 40 37 44 37 41 39 42 44 45 46 50 53 56 58 61 65 62 73 77
50 50 50 50 50 50 50 50 50 51 51 52 53 53 53 53 53 51 52 51 52 43 37 41 51 58 60 56 55 54 49 45 45 42 41 40 45 42 43 44 41 46 43 41 41 50 49 52 55 62 62 62 63 67
49 50 50 50 50 50 50 50 50 51 51 52 53 53 52 52 52 49 46 53 55 51 42 35 51 54 56 56 55 52 51 48 47 42 42 46 50 42 38 39 50 52 53 50 47 56 56 57 59 62 58 63 63 68
49 50 50 50 50 50 50 50 51 51 52 52 52 51 52 51 49 47 45 50 52 51 42 38 40 53 55 53 50 49 51 48 46 44 42 43 45 47 40 38 50 56 57 56 56 54 52 56 53 60 59 66 64 65
49 50 50 50 50 50 50 50 51 51 51 51 51 51 52 52 50 49 53 55 52 49 46 36 37 43 54 44 42 47 44 46 46 44 45 43 45 44 37 46 52 56 56 57 57 56 55 58 60 60 61 64 66 60
49 49 50 50 50 50 50 50 51 51 51 51 51 51 52 50 50 52 56 55 53 48 40 40 35 33 49 44 44 44 45 37 46 41 42 43 40 36 44 48 52 55 54 56 58 58 57 55 60 59 60 63 62 63
49 49 50 50 50 50 50 50 51 51 51 51 53 52 47 54 59 58 51 48 45 47 46 40 44 37 44 40 39 39 42 38 34 41 47 41 41 50 51 53 56 57 58 57 52 51 52 56 59 59 59 65 65 65
49 49 50 50 50 50 50 51 51 51 54 55 50 49 54 60 55 50 44 42 44 40 45 43 44 40 47 38 37 38 35 37 33 37 38 38 38 40 46 48 51 55 59 59 56 58 58 58 60 60 62 64 68 71
49 49 49 49 50 50 50 51 51 51 52 49 46 50 53 51 48 44 40 42 40 38 46 43 44 45 42 42 36 37 33 36 31 38 37 34 37 41 43 44 47 51 55 58 61 61 63 63 64 61 60 62 67 69
49 49 49 49 50 51 52 52 51 51 51 54 48 48 45 45 35 35 32 37 37 45 47 45 42 43 43 39 35 34 31 31 37 33 33 34 39 39 39 43 47 50 50 53 57 61 64 65 67 66 64 66 68 68
48 49 49 49 49 52 52 51 51 51 51 50 48 37 39 36 38 38 39 42 45 46 47 47 45 42 43 38 37 32 37 35 31 30 31 35 38 39 40 44 46 45 46 48 51 54 56 63 65 67 68 68 68 66
48 48 49 51 53 52 51 50 50 56 53 50 49 36 39 46 49 49 51 51 52 54 51 47 46 46 39 37 37 35 33 30 31 30 33 37 40 40 41 43 44 45 46 46 48 51 53 54 57 59 64 67 68 69
48 48 53 52 52 51 50 51 57 59 57 54 51 44 48 46 47 50 52 50 55 54 53 48 41 39 36 36 33 31 31 29 32 32 37 40 44 42 44 45 46 46 46 47 49 51 51 52 53 55 58 61 64 67
47 48 52 51 50 49 51 51 58 57 53 52 47 54 51 50 48 50 53 52 56 52 44 45 37 34 39 33 32 33 32 33 37 42 44 45 45 46 46 46 48 48 47 47 48 49 50 52 55 54 54 57 59 58
47 51 51 50 48 48 56 58 56 54 50 52 47 51 53 53 51 50 51 55 52 51 50 43 47 37 33 30 32 35 37 40 43 44 46 47 49 49 49 47 48 49 48 48 48 49 49 49 49 50 53 55 56 55
46 47 47 47 48 45 48 56 56 47 50 53 54 55 55 54 53 55 54 53 55 55 52 48 43 38 38 42 43 45 45 44 44 46 47 51 51 52 51 50 50 51 49 49 48 49 50 50 49 50 52 53 51 53
46 48 49 49 50 49 50 51 57 50 45 51 55 53 53 53 55 55 53 53 52 51 47 44 43 45 47 48 50 49 50 51 50 47 47 51 52 52 50 50 48 50 49 51 51 46 50 50 51 50 50 49 51 50
48 53 51 53 53 50 50 52 52 50 51 50 55 53 52 55 53 52 51 54 50 46 43 49 51 53 53 51 52 51 51 50 51 50 49 51 52 53 53 51 51 51 49 48 49 52 49 49 50 52 52 51 51 52
48 52 51 55 51 53 50 54 49 53 51 51 51 53 47 44 47 51 54 49 48 50 51 51 52 53 54 53 51 52 52 56 54 53 52 54 53 51 54 55 54 51 50 51 52 52 54 54 51 52 52 52 51 52
48 50 49 51 48 45 43 55 48 50 45 46 49 47 46 45 51 56 46 51 52 54 55 55 56 55 53 54 53 53 55 55 53 52 51 51 55 54 53 54 55 54 52 53 54 53 53 45 53 54 53 53 55 55
50 46 44 43 45 37 49 46 48 45 44 41 41 42 44 46 52 46 44 49 49 51 49 53 55 53 53 53 51 50 54 54 53 52 53 52 50 51 50 53 54 55 55 55 54 53 55 54 51 54 53 53 54 55
38 36 37 33 41 43 42 43 43 40 41 42 42 42 42 49 39 43 44 49 49 49 46 47 49 53 50 50 50 51 55 56 54 51 55 56 51 49 50 53 52 54 56 53 52 53 52 53 53 54 51 51 51 54
27 35 34 37 38 40 41 39 40 41 42 40 42 46 44 42 40 40 46 51 50 49 47 47 50 49 50 53 51 51 52 56 55 51 53 57 55 52 50 49 49 50 54 54 53 53 53 52 51 52 51 50 43 51
28 32 38 47 44 46 42 46 47 41 41 39 40 39 38 35 38 46 51 54 52 55 56 56 54 53 51 53 54 55 55 56 55 54 57 56 55 54 53 49 47 49 53 54 54 54 52 51 49 49 49 50 50 49
34 39 34 37 40 41 37 39 39 39 43 47 45 39 38 39 39 50 52 54 56 58 57 57 56 56 55 55 56 55 55 56 57 57 56 50 49 51 52 54 55 41 51 47 51 52 52 52 51 50 49 46 45 48
36 40 41 35 37 37 37 38 39 44 49 48 40 40 45 52 54 54 56 58 57 56 54 54 53 55 55 56 55 52 51 51 50 46 44 41 42 44 49 51 55 55 55 51 36 43 48 48 49 48 48 46 44 44
36 43 36 35 35 34 39 44 45 49 50 51 53 52 52 55 56 58 57 56 54 54 55 56 55 54 52 50 46 44 47 49 49 46 43 44 47 49 50 51 52 54 52 52 53 50 37 47 44 47 45 43 40 36
45 44 39 37 37 43 46 50 51 52 52 51 53 49 49 51 54 56 55 56 56 56 55 54 51 51 48 46 45 41 40 46 49 45 44 47 49 48 47 48 52 53 52 51 48 47 46 44 41 39 39 37 37 35
42 40 38 36 38 45 50 49 46 47 48 47 47 51 50 48 43 49 51 53 52 47 41 48 47 47 50 50 49 44 39 41 40 40 40 40 41 42 45 48 49 51 51 50 46 44 43 39 36 35 35 35 35 34
41 44 43 42 39 41 46 44 40 40 42 39 45 48 48 43 38 41 51 50 47 45 46 46 46 47 47 47 45 41 39 38 34 31 31 31 30 32 39 41 44 47 46 43 42 41 40 38 35 34 33 33 33 32
MSLP
1024.27 1023.68 1022.97 1022.01 1021.28 1020.50 1019.79 1019.00 1018.26 1017.52 1016.78 1016.04 1015.23 1014.58 1014.04 1013.58 1013.25 1013.12 1012.49 1011.98 1012.22 1011.25 1009.21 1008.14 1007.82 1007.83 1007.46 1007.47 1006.90 1006.00 1005.10 1004.39 1003.33 1003.02 1002.81 1002.01 1001.50 1001.88 1001.70 1000.42 998.44 997.17 995.30 993.83 992.88 991.40 989.94 988.35 988.54 988.49 988.63 988.24 988.35 988.98
1024.03 1023.30 1022.65 1021.74 1020.93 1020.16 1019.39 1018.60 1017.87 1017.15 1016.41 1015.71 1014.96 1014.24 1013.71 1013.29 1012.92 1012.71 1012.12 1011.27 1011.07 1010.83 1008.84 1007.62 1006.84 1006.49 1006.35 1006.46 1006.89 1006.18 1006.11 1005.47 1005.17 1004.38 1004.07 1003.54 1003.04 1003.00 1002.63 1001.90 1000.33 999.39 998.62 996.72 995.87 992.81 990.60 990.80 990.45 989.05 987.91 987.86 988.22 988.76
1023.76 1022.94 1022.29 1021.42 1020.59 1019.80 1019.00 1018.17 1017.38 1016.63 1015.89 1015.19 1014.45 1013.81 1013.27 1012.88 1012.55 1012.45 1011.92 1011.08 1010.67 1009.85 1007.66 1006.08 1005.25 1004.54 1004.63 1005.24 1005.83 1006.15 1005.08 1004.81 1004.86 1004.92 1004.48 1004.36 1003.22 1002.53 1002.69 1002.69 1001.82 1001.06 999.62 997.83 996.59 994.24 993.40 992.69 992.37 991.35 990.73 987.99 987.78 988.01
1023.50 1022.64 1021.89 1021.04 1020.21 1019.37 1018.52 1017.64 1016.81 1016.08 1015.39 1014.59 1013.87 1013.22 1012.66 1012.28 1012.07 1011.88 1011.64 1010.69 1010.66 1010.09 1008.65 1005.83 1004.51 1003.93 1003.47 1004.12 1004.67 1004.99 1004.81 1004.62 1004.39 1004.07 1004.28 1003.86 1003.68 1003.37 1002.95 1002.42 1002.01 1002.15 1001.21 999.82 997.67 996.33 994.35 994.06 994.59 993.74 992.30 990.39 989.22 988.15
1023.33 1022.41 1021.52 1020.65 1019.80 1018.91 1017.98 1017.04 1016.12 1015.37 1014.73 1013.89 1013.17 1012.47 1011.99 1011.69 1011.53 1011.25 1010.70 1010.20 1010.11 1010.64 1009.38 1007.02 1005.02 1003.39 1003.05 1003.62 1004.03 1003.81 1004.15 1004.36 1004.07 1003.82 1003.09 1002.73 1002.14 1002.17 1001.08 1001.04 1001.30 1000.89 1000.52 1000.31 999.21 998.98 998.65 997.68 996.45 994.90 994.07 993.13 992.11 990.90
1023.02 1022.13 1021.19 1020.19 1019.35 1018.48 1017.51 1016.47 1015.54 1014.64 1013.99 1013.25 1012.52 1011.86 1011.46 1011.24 1011.13 1010.91 1009.99 1009.85 1009.54 1009.69 1009.42 1007.65 1005.22 1003.60 1003.08 1003.20 1003.08 1003.08 1002.98 1003.20 1003.55 1003.75 1003.49 1002.35 1001.54 1001.93 1002.73 1002.28 1000.16 1000.52 1000.62 1000.60 1000.04 999.27 998.82 997.83 997.09 996.03 995.28 994.38 993.36 991.75
1022.63 1021.78 1020.85 1019.81 1018.91 1018.05 1017.10 1015.95 1014.95 1013.99 1013.29 1012.57 1012.03 1011.43 1011.05 1010.91 1011.03 1010.45 1010.20 1009.86 1009.61 1009.60 1009.33 1007.92 1005.91 1003.74 1003.41 1003.26 1003.18 1002.86 1002.52 1002.51 1002.61 1002.87 1002.63 1002.49 1001.99 1001.48 1000.79 1000.71 1000.15 999.22 999.85 999.36 999.32 999.63 998.83 998.23 997.67 996.35 996.01 994.78 993.67 992.84
1022.25 1021.40 1020.50 1019.49 1018.52 1017.67 1016.70 1015.54 1014.38 1013.34 1012.58 1011.80 1011.42 1010.98 1010.65 1010.60 1010.53 1009.87 1008.89 1008.89 1009.20 1009.35 1008.95 1008.09 1006.11 1004.68 1003.91 1004.00 1004.01 1003.69 1003.18 1002.56 1001.97 1001.79 1001.49 1001.67 1001.52 1001.23 1000.65 999.37 999.18 998.79 997.74 998.48 998.80 998.74 998.90 998.51 997.98 997.35 995.83 994.24 993.42 993.73
1021.90 1020.99 1020.11 1019.14 1018.13 1017.29 1016.36 1015.17 1013.96 1012.84 1011.76 1010.90 1010.52 1010.19 1010.32 1010.23 1009.32 1008.74 1008.56 1008.83 1009.05 1009.41 1008.73 1007.93 1006.95 1006.18 1005.34 1005.14 1004.85 1004.28 1003.62 1003.24 1002.22 1001.70 1001.39 1001.25 1000.82 1000.24 999.31 998.70 998.39 998.77 998.82 998.46 998.35 998.55 998.06 998.01 998.04 996.97 996.24 995.44 995.50 994.53
1021.56 1020.58 1019.68 1018.75 1017.78 1016.90 1015.97 1014.92 1013.67 1012.44 1011.04 1009.99 1009.77 1009.89 1009.26 1008.68 1008.19 1008.35 1008.66 1008.74 1008.96 1008.59 1008.42 1007.64 1006.83 1006.46 1006.20 1005.92 1005.67 1005.34 1004.62 1004.01 1003.07 1002.11 1000.89 1000.72 1000.40 999.65 999.74 999.62 998.23 997.71 997.59 997.26 996.78 997.09 997.62 997.93 997.61 997.44 997.33 996.74 996.24 995.77
1021.17 1020.21 1019.28 1018.34 1017.41 1016.51 1015.61 1014.63 1013.72 1012.54 1010.49 1010.54 1010.77 1010.18 1009.16 1008.14 1008.29 1008.21 1008.19 1008.39 1008.24 1008.04 1007.61 1006.94 1006.38 1005.85 1005.31 1006.18 1006.34 1006.58 1006.08 1005.20 1004.24 1003.50 1002.72 1001.63 1001.43 1002.20 1001.38 999.72 998.10 996.92 996.40 995.95 996.17 996.54 997.33 997.48 996.60 996.72 996.90 996.48 996.08 996.00
1020.73 1019.81 1018.88 1017.94 1017.03 1016.06 1015.26 1014.35 1013.66 1013.08 1012.55 1012.54 1012.77 1011.48 1009.92 1008.71 1008.47 1008.52 1008.49 1008.67 1008.64 1007.78 1006.72 1006.22 1005.63 1005.53 1006.16 1006.69 1007.02 1007.17 1006.86 1006.20 1005.24 1004.98 1003.86 1003.16 1003.65 1003.46 1002.63 1001.54 1000.05 998.55 997.63 996.66 996.67 996.62 996.20 996.25 996.08 996.16 996.82 996.85 996.25 995.92
1020.28 1019.38 1018.39 1017.49 1016.64 1015.66 1014.85 1014.07 1013.29 1012.87 1011.99 1011.58 1011.97 1010.97 1009.90 1009.83 1009.81 1009.76 1009.31 1009.05 1008.55 1007.74 1006.56 1005.97 1005.47 1005.88 1006.36 1007.14 1007.50 1007.58 1007.30 1006.67 1006.06 1005.33 1004.65 1004.60 1004.22 1003.88 1003.35 1002.27 1000.72 999.96 998.54 996.92 996.33 996.07 995.49 995.33 995.72 996.30 995.91 996.56 995.92 995.34
1019.78 1018.81 1017.86 1017.02 1016.13 1015.20 1014.27 1013.33 1012.63 1012.10 1011.97 1010.90 1010.48 1010.45 1010.35 1010.01 1010.34 1009.89 1009.21 1008.10 1007.25 1006.50 1005.64 1005.14 1005.25 1005.84 1006.10 1006.93 1007.35 1007.50 1007.12 1006.86 1006.55 1006.24 1005.92 1005.15 1004.53 1004.15 1003.53 1002.52 1001.38 1000.06 999.38 998.73 997.97 997.14 996.49 995.55 995.51 995.56 995.50 995.86 995.94 995.67
1019.36 1018.16 1016.90 1016.35 1015.30 1014.48 1013.64 1012.82 1011.82 1011.48 1011.36 1010.22 1009.89 1010.21 1009.99 1009.58 1008.72 1008.23 1007.52 1006.63 1005.92 1005.27 1004.67 1004.83 1005.18 1005.51 1006.32 1007.14 1007.85 1007.96 1007.44 1007.45 1007.36 1007.23 1006.54 1005.41 1004.45 1003.81 1003.28 1002.60 1001.79 1000.94 999.72 998.46 998.04 997.65 997.40 996.86 996.14 995.69 995.69 995.24 995.29 996.18
1018.98 1017.58 1016.03 1015.42 1015.10 1014.14 1013.13 1012.27 1010.80 1010.46 1009.61 1009.32 1009.17 1009.31 1008.98 1008.71 1008.24 1007.56 1006.89 1006.34 1005.62 1005.17 1004.72 1005.37 1005.92 1006.32 1007.20 1007.92 1008.36 1008.65 1008.47 1008.17 1007.76 1007.40 1006.18 1005.15 1004.14 1003.37 1002.89 1002.12 1001.49 1001.11 1000.38 999.61 998.77 998.02 997.58 996.69 996.40 995.98 995.56 995.17 995.13 994.70
1018.83 1017.38 1015.97 1015.58 1015.01 1013.91 1012.05 1012.06 1010.33 1009.38 1009.07 1008.70 1008.49 1008.16 1008.03 1007.73 1007.49 1007.24 1006.66 1006.02 1005.45 1005.33 1005.37 1005.69 1006.36 1007.10 1007.68 1008.03 1008.42 1008.73 1008.61 1008.28 1007.39 1006.13 1004.96 1004.48 1003.72 1003.20 1002.70 1001.87 1001.10 1000.50 999.83 998.98 998.09 997.38 996.59 995.91 995.62 995.50 995.12 995.15 996.07 995.83
1017.88 1016.88 1016.36 1015.73 1015.51 1013.96 1012.00 1010.77 1009.84 1009.10 1008.37 1007.86 1007.75 1007.45 1007.11 1007.08 1006.83 1006.60 1006.22 1005.96 1005.50 1005.32 1005.52 1005.88 1006.31 1007.04 1007.71 1008.20 1008.05 1007.62 1007.10 1006.67 1005.99 1005.27 1004.25 1003.52 1003.00 1002.72 1002.56 1001.94 1001.29 1000.41 999.70 998.74 997.52 997.14 996.51 996.18 995.46 994.99 994.33 994.48 995.03 996.04
1017.79 1016.92 1015.99 1015.09 1015.91 1015.34 1012.83 1009.85 1009.14 1008.96 1007.93 1007.43 1007.13 1006.82 1006.50 1006.45 1006.32 1006.14 1006.20 1005.56 1005.40 1004.96 1005.26 1005.79 1006.30 1006.78 1007.36 1007.21 1006.61 1006.06 1005.78 1005.52 1004.88 1004.03 1003.57 1002.90 1002.36 1002.17 1001.94 1001.88 1001.47 1000.61 1000.02 999.22 997.80 997.29 996.05 995.78 996.38 996.35 996.34 996.28 996.22 995.48
1016.64 1015.67 1014.70 1014.45 1014.74 1014.11 1011.89 1009.61 1008.61 1008.49 1007.76 1007.28 1006.84 1006.64 1006.26 1005.93 1005.77 1005.62 1005.77 1005.80 1005.52 1005.19 1005.59 1005.90 1006.44 1006.23 1006.05 1006.11 1005.61 1005.46 1005.13 1004.69 1004.12 1003.56 1003.08 1002.59 1002.20 1001.96 1001.95 1001.80 1001.44 1000.94 1000.48 999.63 998.76 998.27 997.62 997.01 996.37 996.78 996.38 996.22 996.35 996.00
1016.02 1014.27 1013.99 1013.73 1013.57 1013.47 1011.71 1009.50 1008.29 1007.38 1006.92 1006.69 1006.50 1006.32 1006.00 1005.58 1005.42 1005.41 1005.78 1005.51 1005.65 1005.57 1005.53 1005.42 1005.19 1005.36 1005.57 1005.73 1006.02 1005.63 1005.21 1004.42 1004.28 1004.22 1003.28 1002.57 1002.11 1001.83 1001.66 1001.75 1001.48 1001.22 1000.89 1000.54 999.68 998.87 998.80 998.63 998.41 997.93 997.21 997.50 997.05 996.89
1015.37 1014.49 1013.91 1012.77 1012.39 1011.24 1009.99 1008.87 1008.37 1007.23 1006.92 1006.48 1006.40 1006.15 1005.86 1005.45 1005.28 1005.12 1005.03 1005.23 1005.50 1005.23 1005.00 1005.07 1004.88 1004.96 1005.16 1005.41 1005.75 1005.54 1005.38 1004.19 1004.18 1003.77 1003.50 1002.87 1002.59 1002.34 1002.14 1001.87 1001.41 1001.29 1000.89 1000.77 1000.35 999.68 999.39 999.42 999.22 998.73 998.54 998.23 997.48 997.16
1014.86 1013.94 1013.61 1012.68 1011.37 1010.06 1008.94 1008.05 1007.88 1007.30 1006.83 1006.05 1005.72 1005.77 1005.64 1005.33 1004.99 1004.75 1004.93 1004.87 1004.75 1004.79 1004.74 1004.94 1004.69 1004.71 1004.98 1005.30 1005.39 1005.12 1005.07 1004.69 1004.41 1004.48 1004.38 1004.16 1003.31 1003.18 1002.78 1002.40 1002.20 1001.81 1001.48 1001.08 1000.73 1000.59 1000.37 1000.04 999.68 999.77 999.53 998.97 998.61 998.60
1013.77 1013.74 1012.65 1011.48 1010.42 1009.58 1008.65 1007.62 1007.13 1006.77 1006.48 1006.12 1005.91 1005.70 1005.45 1005.30 1005.04 1004.82 1004.57 1004.51 1004.91 1005.05 1005.03 1005.53 1004.96 1004.82 1004.78 1004.93 1005.09 1005.11 1005.33 1005.11 1004.66 1004.52 1004.33 1004.41 1004.08 1004.01 1003.89 1003.32 1002.86 1002.53 1002.27 1001.83 1001.49 1001.34 1001.17 1000.94 1000.66 1000.55 1000.19 1000.02 999.51 999.44
1014.19 1012.85 1012.25 1011.10 1009.92 1008.66 1007.79 1007.09 1006.84 1006.69 1006.20 1006.02 1005.88 1005.74 1005.27 1005.18 1004.98 1004.68 1004.26 1004.01 1004.47 1004.72 1005.36 1005.57 1005.61 1005.13 1005.08 1005.21 1005.09 1005.05 1004.72 1004.43 1004.35 1004.48 1004.19 1004.13 1004.11 1004.37 1004.00 1003.77 1003.55 1003.17 1002.99 1002.60 1002.41 1002.15 1002.10 1001.91 1001.86 1001.77 1001.75 1001.38 1001.15 1001.08
1013.79 1011.76 1010.96 1009.70 1008.77 1008.01 1007.00 1006.63 1006.35 1006.03 1005.85 1005.82 1005.69 1005.35 1005.05 1005.05 1004.78 1004.01 1003.47 1003.39 1003.68 1004.44 1004.90 1005.12 1004.95 1004.90 1004.89 1004.77 1004.77 1004.96 1004.93 1004.58 1004.59 1004.69 1004.53 1004.43 1004.16 1004.18 1004.27 1004.22 1004.08 1003.94 1003.84 1003.60 1003.21 1002.95 1002.73 1002.72 1002.74 1002.70 1002.86 1002.82 1002.79 1002.47
1012.39 1010.70 1009.46 1008.64 1007.74 1007.38 1006.92 1006.26 1005.88 1005.50 1005.04 1004.84 1004.78 1004.92 1005.07 1004.95 1004.26 1003.57 1003.44 1003.48 1003.74 1003.85 1003.77 1004.03 1004.19 1004.43 1004.50 1004.53 1004.46 1004.53 1004.64 1004.65 1004.61 1004.64 1004.73 1004.67 1004.80 1004.88 1004.66 1004.73 1004.81 1004.88 1004.50 1004.27 1003.97 1003.86 1003.72 1003.57 1003.60 1003.59 1003.66 1003.83 1003.92 1003.96
1010.64 1009.33 1008.49 1008.04 1007.80 1007.54 1007.06 1006.57 1006.09 1005.39 1004.58 1004.27 1004.26 1004.27 1004.08 1004.00 1003.74 1003.30 1003.22 1003.49 1003.38 1003.49 1003.56 1003.59 1003.60 1003.69 1003.86 1003.98 1004.35 1004.46 1004.67 1004.85 1004.90 1004.81 1004.94 1005.36 1005.90 1005.59 1005.33 1005.45 1004.90 1005.04 1005.06 1005.05 1004.91 1004.80 1004.62 1004.45 1004.44 1004.52 1004.71 1005.02 1005.21 1005.27
1008.72 1008.04 1007.90 1007.51 1007.44 1007.22 1006.73 1005.95 1005.35 1004.50 1004.24 1003.81 1003.38 1003.28 1003.25 1002.87 1002.61 1002.59 1002.50 1002.66 1002.89 1003.15 1003.36 1003.44 1003.55 1003.63 1003.78 1004.03 1004.47 1005.33 1005.69 1005.97 1005.88 1005.84 1006.11 1006.70 1006.62 1006.65 1006.21 1005.90 1005.30 1005.05 1005.25 1005.41 1005.66 1005.55 1005.67 1005.74 1005.55 1005.59 1005.69 1005.96 1006.45 1006.64
1007.16 1006.98 1006.81 1006.56 1006.29 1005.59 1004.99 1004.74 1003.98 1003.52 1003.45 1003.53 1002.93 1002.54 1002.46 1002.07 1002.22 1001.96 1002.07 1002.28 1002.55 1002.72 1002.86 1003.18 1003.47 1003.80 1004.06 1004.67 1005.42 1006.41 1006.82 1007.17 1007.34 1007.21 1007.33 1007.62 1007.33 1006.88 1006.64 1006.42 1006.25 1005.89 1005.68 1005.65 1006.03 1006.31 1006.32 1006.27 1006.47 1006.73 1007.02 1007.27 1007.59 1007.81
1005.33 1005.02 1004.98 1004.95 1004.53 1003.94 1003.50 1003.21 1003.04 1002.66 1002.67 1002.20 1002.13 1002.00 1002.02 1002.01 1001.85 1002.08 1002.32 1002.27 1002.36 1002.54 1002.85 1003.27 1004.13 1004.44 1005.04 1005.54 1005.96 1006.72 1007.34 1007.48 1007.65 1008.28 1008.61 1008.32 1008.23 1008.03 1007.66 1007.28 1006.76 1006.62 1006.35 1006.45 1006.84 1007.04 1007.26 1007.58 1007.86 1008.17 1008.42 1008.80 1009.07 1009.22
1004.01 1003.71 1003.67 1003.61 1003.32 1002.87 1002.53 1002.17 1002.14 1002.13 1002.06 1001.95 1001.89 1001.60 1001.91 1002.04 1002.67 1003.20 1003.50 1003.32 1003.62 1004.24 1005.06 1004.87 1004.88 1005.40 1005.52 1006.15 1006.86 1007.56 1007.63 1008.39 1008.79 1009.23 1009.37 1009.29 1009.16 1009.06 1008.72 1008.13 1007.70 1007.24 1007.09 1007.16 1007.48 1007.87 1008.31 1008.70 1009.10 1009.41 1009.59 1009.74 1009.98 1010.21
1002.50 1002.40 1002.38 1002.29 1002.11 1001.95 1002.04 1002.38 1002.61 1002.66 1002.36 1001.92 1001.75 1001.87 1001.83 1002.44 1003.63 1005.09 1005.26 1005.23 1005.39 1005.83 1006.02 1006.30 1006.71 1006.54 1006.70 1006.95 1007.46 1008.38 1008.95 1009.48 1009.81 1010.03 1010.17 1010.23 1010.22 1009.91 1009.43 1009.05 1008.48 1008.16 1008.23 1008.36 1008.59 1008.81 1009.21 1009.66 1010.13 1010.47 1010.77 1010.99 1011.21 1011.45
Wind_Speed
22 23 23 23 24 24 24 24 25 25 23 23 22 19 17 14 10 4 5 4 3 4 12 7 6 8 6 5 5 6 8 3 3 1 4 1 2 2 5 9 13 6 5 3 2 6 6 4 8 4 9 3 9 8
22 22 23 23 23 24 24 26 27 26 24 23 23 21 17 15 13 9 4 3 4 4 9 15 19 17 13 12 6 3 6 3 4 4 6 4 1 4 2 5 14 3 5 4 5 2 3 10 10 9 8 9 8 8
24 23 24 24 24 24 25 27 27 27 24 23 22 22 19 16 14 7 6 5 4 3 9 4 6 12 10 13 8 3 2 2 3 6 1 2 4 2 2 4 2 12 12 3 9 12 21 16 25 28 25 4 6 7
23 23 24 25 25 25 24 25 26 27 24 24 23 21 19 15 14 11 4 4 2 4 4 7 10 9 9 11 12 10 8 4 4 2 2 3 3 3 3 5 2 3 10 9 7 14 19 18 23 25 23 23 17 6
24 24 24 25 26 26 25 25 26 27 25 24 23 21 18 16 14 9 7 5 3 0 4 8 16 4 7 13 17 18 10 7 2 5 4 4 2 3 3 3 4 5 1 6 4 10 3 15 22 25 24 18 17 19
24 24 25 25 26 27 26 26 27 27 26 25 25 22 17 13 9 4 1 2 1 2 3 5 6 7 6 8 5 7 5 4 4 2 4 4 4 4 3 4 4 3 7 7 10 15 8 14 16 22 21 17 19 15
24 25 25 26 26 27 27 27 27 29 27 25 23 19 13 6 2 3 2 1 6 2 2 5 5 4 3 5 4 4 5 4 4 3 4 4 4 4 1 6 7 7 7 8 7 8 9 12 16 21 23 14 16 17
24 25 26 26 26 27 27 27 28 30 28 27 21 17 11 6 7 5 4 4 1 3 2 4 5 5 4 3 4 3 4 3 3 4 2 4 4 3 6 6 6 8 8 6 6 4 5 12 17 18 19 21 16 18
25 26 26 26 26 26 27 27 28 29 30 27 22 17 3 3 3 1 5 5 3 2 3 3 3 4 7 3 3 3 3 2 4 3 4 2 4 6 3 5 6 9 8 7 9 6 5 9 15 13 19 17 16 13
25 26 27 27 26 26 27 26 28 30 33 25 3 3 2 1 3 3 2 3 2 3 3 4 3 5 3 1 3 4 3 4 3 3 5 5 8 12 9 12 14 13 10 6 6 7 6 9 11 9 14 14 17 5
26 27 28 28 27 26 25 24 24 28 13 5 5 3 5 9 2 3 3 1 1 3 2 4 4 9 2 2 1 3 3 4 3 4 5 4 3 11 19 21 22 14 13 9 4 6 13 13 9 10 10 15 14 8
26 27 28 28 27 25 23 23 21 8 5 5 5 7 4 3 2 4 4 3 2 4 5 5 9 4 2 3 2 2 2 3 3 7 3 2 4 13 18 19 20 19 20 10 10 10 10 6 12 6 4 14 17 12
26 28 28 28 27 23 21 24 21 15 12 2 3 4 4 3 7 5 5 3 4 4 5 8 10 2 2 3 1 2 3 3 6 3 3 3 9 16 15 16 17 14 17 15 10 10 10 16 11 12 5 11 17 15
25 29 30 28 24 20 25 27 23 10 3 4 3 7 2 2 1 5 5 5 6 6 9 6 3 1 1 1 2 3 2 2 5 5 5 6 14 13 13 12 13 18 15 13 12 11 14 6 12 13 11 10 11 15
25 30 31 16 23 29 29 27 25 3 4 3 0 2 3 4 7 8 8 4 4 6 6 3 2 3 3 4 3 3 6 4 3 3 4 9 16 12 9 6 8 12 13 12 10 9 8 10 10 6 7 10 12 14
24 26 5 27 28 31 31 20 5 3 4 2 3 2 4 4 5 6 7 5 6 6 4 4 3 4 4 2 5 4 7 4 4 4 10 12 13 9 12 12 8 8 11 8 9 8 8 7 10 11 7 7 9 15
18 6 19 26 29 32 29 4 3 4 3 3 3 4 5 6 2 4 6 4 5 5 3 2 4 2 3 3 4 1 3 4 6 8 6 8 10 7 7 10 11 9 11 10 10 6 7 9 12 10 10 6 4 5
6 11 24 27 20 13 4 4 3 3 5 5 4 4 4 2 3 2 3 6 3 4 4 2 1 2 1 2 4 4 5 7 7 9 6 4 7 2 3 9 10 11 13 14 14 5 5 7 6 6 6 7 5 5
15 16 27 29 9 6 5 4 3 3 4 5 5 5 3 1 2 4 3 4 5 1 2 2 3 2 1 4 5 3 3 4 6 6 4 5 3 2 3 5 10 12 12 11 13 8 12 14 8 6 4 7 2 4
26 22 22 15 5 4 6 5 4 4 4 4 4 6 5 3 4 3 1 4 3 1 2 1 1 4 3 4 4 3 2 5 6 4 5 2 2 1 4 5 4 8 9 12 8 6 7 7 9 9 8 7 6 5
9 2 9 7 5 7 5 4 4 4 4 3 5 6 4 3 3 3 2 2 2 2 2 3 3 4 5 6 7 9 9 3 3 7 3 5 2 3 3 3 5 6 6 8 9 11 10 5 6 4 8 6 4 2
6 10 4 4 5 5 6 6 4 4 3 4 6 7 5 3 3 4 3 4 3 3 2 2 2 4 5 6 4 4 6 9 8 8 14 8 7 5 7 8 7 3 5 6 6 8 9 9 7 9 7 4 6 9
9 4 4 5 5 3 7 2 5 6 5 3 1 2 2 2 4 1 1 2 3 3 2 4 3 4 4 5 3 6 11 9 4 4 8 9 6 9 7 6 8 7 8 9 5 7 6 8 10 11 10 10 3 8
7 4 5 5 7 5 4 4 3 2 2 2 2 4 4 4 4 4 5 4 2 2 3 9 5 1 2 5 3 3 5 4 3 2 3 4 5 8 9 6 6 8 9 8 6 7 9 9 10 12 13 10 12 8
4 7 4 7 5 6 6 4 5 4 7 4 5 5 3 0 2 7 11 6 5 4 4 2 5 4 2 3 3 3 6 3 3 3 3 2 3 2 4 2 4 8 9 8 8 7 6 7 8 10 11 12 14 12
7 6 8 6 4 5 5 6 6 8 9 8 4 3 1 1 3 5 4 3 6 6 5 6 8 3 2 2 2 2 4 4 4 4 4 5 3 4 4 4 5 7 7 7 6 9 8 8 10 13 13 14 13 14
7 8 6 5 3 3 5 5 5 5 6 6 3 4 2 3 5 4 2 3 3 4 3 1 3 3 3 3 2 1 2 4 2 2 5 5 9 9 5 4 4 3 5 7 7 8 8 9 9 10 10 11 12 12
8 6 10 3 5 4 8 8 8 6 4 2 3 5 6 7 5 2 3 3 4 5 3 2 3 3 3 1 3 2 2 4 6 5 4 7 6 5 8 7 2 4 4 5 5 6 7 7 7 8 10 11 10 11
7 5 6 8 5 3 6 12 12 8 7 9 6 7 12 7 3 2 4 6 5 4 4 4 2 3 2 3 6 8 8 7 6 9 9 5 4 4 4 7 6 3 3 4 5 5 8 7 8 9 11 10 9 8
7 8 7 9 9 8 9 7 6 9 10 13 10 8 8 7 6 3 1 1 2 3 1 2 3 1 2 7 6 8 6 5 6 6 6 7 7 2 2 5 6 6 5 6 5 4 5 6 7 8 8 7 6 6
5 6 8 8 9 11 12 10 12 11 11 7 8 6 5 3 2 1 4 4 3 2 2 3 8 7 7 6 6 8 5 1 6 10 6 3 3 7 8 9 7 6 5 5 6 5 8 8 6 7 8 9 10 7
6 8 7 10 10 9 9 7 5 7 7 8 9 5 6 3 4 5 8 7 6 9 7 6 8 7 7 6 6 6 9 9 7 7 9 6 6 6 6 5 7 5 6 5 6 7 9 7 6 7 8 10 10 10
6 8 9 6 4 5 6 6 3 7 10 6 8 7 5 5 6 2 4 8 8 6 7 7 5 7 9 8 10 9 9 8 9 6 6 7 8 8 6 6 6 6 9 7 8 9 10 12 9 10 10 10 10 10
Wind_Direction
338 332 330 331 328 329 329 329 329 328 328 328 327 330 332 330 335 333 279 249 213 254 286 261 327 284 286 297 299 310 319 342 298 235 190 175 260 145 312 306 317 331 316 198 150 94 147 136 294 249 202 196 156 153
337 334 327 328 328 329 328 329 328 326 324 322 322 323 322 326 317 330 266 271 276 236 262 284 276 271 247 234 265 243 168 247 29 324 23 337 272 163 162 280 332 26 1 318 357 228 345 40 328 318 187 150 146 146
336 334 328 328 328 328 331 331 327 324 321 318 315 315 315 316 312 304 290 281 295 271 289 291 240 240 217 218 209 247 286 249 169 204 281 306 276 355 158 196 282 329 355 354 328 347 2 21 358 353 344 103 145 148
331 331 328 328 327 327 328 329 326 320 317 315 313 311 308 309 306 305 276 281 262 280 282 281 337 300 209 202 206 217 241 290 237 249 261 201 242 85 18 303 351 227 321 306 283 360 355 360 347 341 344 8 353 177
329 330 329 329 327 326 328 326 321 317 318 316 316 315 311 307 302 291 263 251 204 12 300 290 296 267 84 198 227 224 218 244 311 314 291 243 221 96 334 336 257 147 254 337 335 338 322 316 328 330 349 354 353 3
328 329 329 330 329 326 328 326 322 319 321 322 325 324 319 311 312 281 334 79 133 288 309 304 329 297 6 332 292 303 231 237 222 205 281 279 247 126 217 221 125 164 187 210 325 332 329 320 328 335 328 332 351 354
328 327 328 329 330 328 328 325 323 320 323 323 324 319 312 311 276 267 285 265 334 292 250 286 284 289 13 343 312 292 278 222 210 225 220 257 288 217 226 251 255 284 206 166 240 306 329 339 327 316 321 325 8 346
326 326 326 327 330 330 327 324 323 322 322 321 320 318 300 301 268 276 221 220 245 245 246 272 272 314 24 334 324 13 298 316 264 215 254 234 260 239 236 229 215 266 291 192 224 196 261 294 314 307 322 331 7 3
324 326 326 326 330 330 327 322 324 323 320 314 315 299 277 201 242 22 147 161 210 286 298 268 290 300 338 9 289 290 280 295 278 242 218 231 238 230 288 304 270 232 229 240 185 197 249 282 293 326 318 319 324 6
322 325 325 325 329 330 325 321 323 326 318 315 302 208 233 54 257 307 140 178 196 210 227 254 123 261 258 18 295 324 344 305 325 325 305 215 243 247 301 306 270 273 274 288 198 158 224 255 284 290 292 290 306 12
320 324 324 325 327 328 321 319 328 331 311 352 349 320 324 308 300 225 282 325 288 289 221 260 274 312 197 257 313 29 334 314 293 13 322 293 63 347 339 333 341 338 280 278 257 215 179 222 262 263 282 287 315 272
319 321 323 324 324 324 321 322 333 339 331 319 283 280 266 277 334 333 343 10 340 286 306 320 312 343 60 62 34 21 321 314 296 338 272 284 343 339 331 328 320 323 310 220 253 262 213 215 247 197 199 278 291 304
318 318 320 321 320 320 322 325 326 322 293 192 211 252 55 328 25 351 333 324 303 287 282 303 322 53 123 74 30 359 350 275 322 300 307 337 316 330 329 324 336 340 345 359 318 274 251 208 190 253 219 258 279 289
318 315 316 318 312 321 329 328 326 341 294 255 314 328 359 5 19 244 249 250 231 228 280 290 316 242 83 25 60 327 317 320 341 335 351 301 320 328 323 336 340 338 336 333 332 338 332 231 197 205 223 243 263 279
318 316 313 306 339 335 327 323 313 245 265 271 148 307 308 260 267 253 244 298 312 318 324 2 12 331 51 37 23 325 340 355 352 301 274 304 305 308 307 334 1 347 332 321 317 315 326 329 319 310 243 205 245 252
322 312 330 353 332 326 319 313 268 212 251 251 208 230 256 297 341 327 327 342 342 323 343 51 7 7 25 8 4 21 323 351 303 275 285 292 314 288 315 325 307 349 335 330 329 308 298 300 281 280 298 309 293 288
317 235 339 326 325 319 304 263 254 238 240 245 246 245 232 261 196 274 317 326 322 339 347 54 26 315 1 11 3 359 294 251 273 303 299 293 302 298 314 316 322 337 340 341 327 324 302 284 249 239 238 224 214 336
257 307 309 311 327 298 268 217 258 265 250 243 247 241 274 352 279 325 282 302 346 343 354 26 271 38 42 309 288 238 238 246 247 274 298 289 319 255 303 311 327 331 347 347 343 359 17 47 40 2 166 101 128 177
290 295 297 296 300 304 281 262 146 271 282 311 313 289 271 303 312 259 266 294 301 29 18 28 350 13 212 239 253 321 344 314 294 272 265 308 338 53 222 314 329 351 360 356 351 5 19 23 34 43 35 98 171 86
293 292 283 288 193 258 265 261 159 225 257 246 280 294 274 247 224 191 254 301 310 18 52 32 307 267 300 342 342 335 288 258 300 346 342 347 354 43 37 56 27 0 1 350 349 16 31 17 21 10 41 15 42 44
286 271 275 238 220 220 277 278 268 231 251 229 239 275 271 292 275 323 148 240 16 276 173 246 247 107 86 71 304 327 343 40 24 308 334 321 325 47 51 118 47 31 28 3 348 17 45 17 357 332 58 29 344 311
253 270 278 240 238 233 226 216 244 270 270 273 279 272 274 261 246 259 250 191 188 243 250 290 307 48 42 32 31 349 284 323 44 8 353 2 7 10 26 25 6 21 8 40 12 5 22 43 28 21 15 332 58 48
288 234 215 241 262 250 259 267 243 219 237 265 310 289 256 256 259 310 321 282 200 214 26 304 358 103 107 87 30 7 345 348 11 58 356 330 25 0 359 19 15 15 16 9 3 14 18 12 32 32 28 16 11 82
204 245 243 236 215 244 255 238 230 228 273 291 226 241 264 274 278 267 264 257 94 121 150 261 306 281 192 85 83 120 259 300 342 9 23 312 32 29 342 352 12 19 12 357 21 27 31 30 49 33 13 12 32 50
259 245 198 251 265 250 229 221 237 231 234 228 230 245 257 257 264 280 285 285 161 136 93 41 329 334 3 49 18 333 291 337 29 352 335 34 158 205 253 19 14 32 14 10 16 23 29 39 41 59 41 33 26 38
226 241 200 218 227 227 211 212 211 227 236 224 240 220 100 277 246 254 247 288 114 144 168 190 207 206 263 251 141 52 325 334 26 15 338 319 33 36 23 40 27 16 12 353 9 26 24 36 46 56 51 45 41 27
232 243 232 243 277 286 263 261 259 242 219 206 180 162 131 238 243 236 57 42 140 190 147 238 143 163 196 261 23 33 326 327 337 113 301 16 34 19 25 66 45 350 351 360 24 25 43 53 43 46 54 52 45 40
232 254 224 194 221 231 267 260 259 264 234 217 170 200 193 199 228 268 132 198 224 210 206 213 222 236 263 155 153 239 356 0 354 7 41 65 9 357 34 346 75 101 49 8 31 29 34 43 59 55 60 58 45 38
224 221 221 236 230 219 253 240 244 239 251 253 230 221 242 254 253 263 189 193 190 205 232 255 65 58 19 283 87 53 38 13 359 29 54 22 5 347 351 328 354 45 113 85 44 60 63 55 61 58 54 57 53 36
232 206 207 209 218 230 212 241 276 238 225 247 266 280 283 235 235 240 94 347 283 256 225 39 51 287 73 80 96 77 52 46 18 39 48 16 355 350 351 12 356 349 8 16 45 77 94 69 70 70 66 65 54 42
254 209 215 215 243 251 255 247 244 242 261 277 271 253 246 225 199 267 6 350 297 199 168 149 79 71 68 57 100 115 116 66 88 68 27 352 6 9 360 351 350 350 352 55 47 22 81 67 57 64 83 88 76 63
201 213 226 250 255 249 262 268 220 232 251 256 266 252 266 271 26 29 20 13 19 60 21 21 91 87 94 92 82 71 64 74 65 48 35 21 13 354 319 335 343 343 2 91 86 73 63 71 77 72 72 74 75 75
221 237 250 259 272 234 217 227 210 255 254 242 245 258 256 184 190 112 63 39 58 64 55 59 52 55 67 92 100 93 82 90 98 87 72 56 33 9 7 356 340 46 48 56 65 71 75 75 71 72 68 70 73 77